Voltar ao catálogo

CARBONITE 1

AtivoCiênciaSSO
NORAD 40718·PAYLOAD·🇬🇧 United Kingdom

Lançado Jul 10, 2015 de Satish Dhawan Space Centre

Loading…

Próximas Passagens (próximas 24 horas)

TLE

AtualizadoSource: Space-Track

Época: Sep 14, 2026, 14:35 UTC

1 40718U 15032D   26257.60806338  .00001077  00000-0  13589-3 0  9991
2 40718  97.6559  71.9792 0014730   6.9016 353.2399 14.83821631602600

Acompanhe CARBONITE 1 em tempo real com AllMySat

Download on the App Store